{"data":{"norad_id":56410,"intl_designator":"2023-061AN","name":"STARLINK-6281","alt_names":[],"object_type":"PAYLOAD","status":"ACTIVE","operator":null,"country":"US","launch_date":"2023-05-04","launch_site_code":"AFETR","launch_vehicle":null,"mission":null,"orbit_class":"UNKNOWN","rcs_meters":null,"size_class":null,"mass_kg":null,"dimensions":null,"purposes":["comms"],"wikipedia_slug":null,"has_3d_model":false,"image_url":null,"decayed_at":null,"tle_current":{"epoch":"2026-05-25T05:17:21.486912Z","epoch_age_seconds":49365,"freshness":"FRESH","line1":"1 56410U 23061AN  26145.22038758  .00000419  00000+0  24755-4 0  9991","line2":"2 56410  43.0038 114.4305 0001661 285.9119  74.1550 15.27577922168580","mean_motion":15.27577922,"eccentricity":0.0001661,"inclination_deg":43.0038,"raan_deg":114.4305,"arg_perigee_deg":285.9119,"mean_anomaly_deg":74.155,"bstar":2.4755e-5,"rev_number":16858,"period_min":94.266876946916,"perigee_km":481.91567428219,"apogee_km":484.19496237034,"semimajor_km":6861.1923183263,"source":"CELESTRAK","updated_at":"2026-05-25T13:38:18.060355Z"}}}